| time (UTC) | temp C | wind direction | speed KPH | gust KPH | rain 1hr cm | rain 24hr cm | rain mn cm | humidity % | barometer mb |
| 20260902123006 | -17 | 0.0 | 0.0 | 0.00 | 0.00 | 0.00 | 1008.9 | ||
| 20260902121657 | -17 | 0.0 | 0.0 | 0.00 | 0.00 | 0.00 | 1009.0 | ||
| 20260902120055 | -17 | 0.0 | 0.0 | 0.00 | 0.00 | 0.00 | 1009.3 | ||
| 20260902114552 | 5 | 272 | 4.8 | 35.4 | 0.00 | 0.00 | 0.00 | 60 | 1009.2 |
| 20260902113049 | 5 | 214 | 8.0 | 40.2 | 0.00 | 0.00 | 0.00 | 59 | 1008.7 |
| 20260902111646 | 6 | 261 | 9.7 | 35.4 | 0.00 | 0.00 | 0.00 | 54 | 1008.5 |
| 20260902110055 | 6 | 269 | 12.9 | 41.8 | 0.00 | 0.00 | 0.00 | 51 | 1008.2 |
| 20260902104542 | 6 | 211 | 11.3 | 43.5 | 0.00 | 0.00 | 0.00 | 47 | 1008.1 |
| 20260902103040 | 6 | 303 | 9.7 | 25.7 | 0.00 | 0.00 | 0.00 | 47 | 1007.9 |
| 20260902101639 | 6 | 256 | 6.4 | 29.0 | 0.00 | 0.00 | 0.00 | 49 | 1008.2 |
| 20260902100047 | 6 | 269 | 11.3 | 43.5 | 0.00 | 0.00 | 0.00 | 48 | 1008.3 |
| 20260902094548 | 6 | 272 | 6.4 | 25.7 | 0.00 | 0.00 | 0.00 | 46 | 1008.2 |
| 20260902093043 | 7 | 267 | 11.3 | 48.3 | 0.00 | 0.00 | 0.00 | 43 | 1008.0 |
| 20260902090039 | 7 | 272 | 9.7 | 33.8 | 0.00 | 0.00 | 0.00 | 40 | 1008.1 |
| 20260902084530 | 7 | 226 | 12.9 | 48.3 | 0.00 | 0.00 | 0.00 | 38 | 1008.3 |
| 20260902083029 | 7 | 281 | 12.9 | 53.1 | 0.00 | 0.00 | 0.00 | 41 | 1008.6 |
| 20260902081629 | 7 | 257 | 8.0 | 25.7 | 0.00 | 0.00 | 0.00 | 43 | 1008.3 |
| 20260902080029 | 7 | 254 | 11.3 | 40.2 | 0.00 | 0.00 | 0.00 | 40 | 1008.3 |
| 20260902074525 | 6 | 286 | 6.4 | 32.2 | 0.00 | 0.00 | 0.00 | 42 | 1008.0 |
| 20260902073022 | 6 | 202 | 11.3 | 48.3 | 0.00 | 0.00 | 0.00 | 48 | 1008.3 |
| 20260902071621 | 7 | 292 | 16.1 | 40.2 | 0.00 | 0.00 | 0.00 | 40 | 1007.7 |
| 20260902070023 | 7 | 246 | 16.1 | 38.6 | 0.00 | 0.00 | 0.00 | 44 | 1007.8 |
| 20260902064533 | 7 | 261 | 6.4 | 35.4 | 0.00 | 0.00 | 0.00 | 46 | 1007.9 |
| 20260902063017 | 7 | 284 | 9.7 | 38.6 | 0.00 | 0.00 | 0.00 | 48 | 1008.0 |
| 20260902061631 | 7 | 173 | 12.9 | 43.5 | 0.00 | 0.00 | 0.00 | 47 | 1007.7 |
| 20260902060014 | 7 | 280 | 14.5 | 41.8 | 0.00 | 0.00 | 0.00 | 48 | 1007.8 |
| 20260902054511 | 7 | 292 | 14.5 | 62.8 | 0.00 | 0.00 | 0.00 | 48 | 1007.5 |
| 20260902053008 | 8 | 23 | 14.5 | 40.2 | 0.00 | 0.00 | 0.00 | 40 | 1007.2 |
| 20260902051615 | 7 | 279 | 14.5 | 41.8 | 0.00 | 0.00 | 0.00 | 49 | 1007.7 |
| 20260902050008 | 7 | 194 | 14.5 | 35.4 | 0.00 | 0.00 | 0.00 | 50 | 1007.5 |
| 20260902044509 | 8 | 277 | 8.0 | 37.0 | 0.00 | 0.00 | 0.00 | 43 | 1007.0 |
| 20260902043008 | 8 | 269 | 9.7 | 33.8 | 0.00 | 0.00 | 0.00 | 41 | 1007.1 |
| 20260902041605 | 7 | 284 | 8.0 | 33.8 | 0.00 | 0.00 | 0.00 | 52 | 1007.1 |
| 20260902040001 | 8 | 289 | 14.5 | 48.3 | 0.00 | 0.00 | 0.00 | 48 | 1007.1 |
| 20260902034606 | 7 | 19 | 11.3 | 35.4 | 0.00 | 0.00 | 0.00 | 56 | 1006.8 |
| 20260902033100 | 8 | 277 | 22.5 | 54.7 | 0.00 | 0.00 | 0.00 | 55 | 1006.9 |
| 20260902031558 | 8 | 282 | 9.7 | 48.3 | 0.00 | 0.00 | 0.00 | 54 | 1006.3 |
| 20260902030058 | 8 | 198 | 9.7 | 32.2 | 0.00 | 0.00 | 0.00 | 54 | 1006.4 |
| 20260902024559 | 8 | 246 | 12.9 | 37.0 | 0.00 | 0.00 | 0.00 | 53 | 1006.3 |
| 20260902023058 | 8 | 227 | 9.7 | 29.0 | 0.00 | 0.00 | 0.00 | 51 | 1006.2 |
| 20260902021619 | 9 | 237 | 8.0 | 25.7 | 0.00 | 0.00 | 0.00 | 49 | 1006.3 |
| 20260902014610 | 10 | 286 | 8.0 | 27.4 | 0.00 | 0.00 | 0.00 | 45 | 1006.1 |
| 20260902013100 | 11 | 150 | 8.0 | 20.9 | 0.00 | 0.00 | 0.00 | 43 | 1006.0 |
| 20260902011603 | 12 | 270 | 9.7 | 25.7 | 0.00 | 0.00 | 0.00 | 41 | 1005.9 |
| 20260902010058 | 12 | 259 | 4.8 | 27.4 | 0.00 | 0.00 | 0.00 | 40 | 1006.3 |
| 20260902004557 | 13 | 240 | 11.3 | 29.0 | 0.00 | 0.00 | 0.00 | 38 | 1006.3 |
| 20260902003057 | 13 | 268 | 9.7 | 27.4 | 0.00 | 0.00 | 0.00 | 37 | 1006.3 |
| 20260902001556 | 13 | 295 | 16.1 | 32.2 | 0.00 | 0.00 | 0.00 | 37 | 1006.5 |
| 20260901234557 | 13 | 229 | 6.4 | 45.1 | 0.00 | 0.00 | 0.00 | 37 | 1006.5 |
| 20260901233107 | 13 | 246 | 12.9 | 32.2 | 0.00 | 0.00 | 0.00 | 37 | 1006.4 |
| 20260901231556 | 14 | 279 | 19.3 | 43.5 | 0.00 | 0.00 | 0.00 | 35 | 1006.5 |
| 20260901230058 | 14 | 281 | 16.1 | 35.4 | 0.00 | 0.00 | 0.00 | 35 | 1006.4 |
| 20260901224555 | 15 | 267 | 9.7 | 33.8 | 0.00 | 0.00 | 0.00 | 34 | 1006.4 |
| 20260901223108 | 15 | 279 | 14.5 | 32.2 | 0.00 | 0.00 | 0.00 | 33 | 1006.5 |
| 20260901221553 | 15 | 267 | 6.4 | 30.6 | 0.00 | 0.00 | 0.00 | 33 | 1006.5 |
| 20260901220042 | 15 | 52 | 9.7 | 30.6 | 0.00 | 0.00 | 0.00 | 33 | 1006.6 |
| 20260901220005 | 15 | 227 | 9.7 | 30.6 | 0.00 | 0.00 | 0.00 | 32 | 1006.5 |
| 20260901213003 | 15 | 214 | 12.9 | 37.0 | 0.00 | 0.00 | 0.00 | 32 | 1006.3 |
| 20260901211504 | 14 | 290 | 16.1 | 37.0 | 0.00 | 0.00 | 0.00 | 32 | 1006.5 |
| 20260901210003 | 15 | 301 | 17.7 | 35.4 | 0.00 | 0.00 | 0.00 | 32 | 1006.6 |
| 20260901204503 | 15 | 260 | 11.3 | 32.2 | 0.00 | 0.00 | 0.00 | 31 | 1006.7 |
| 20260901203015 | 15 | 273 | 9.7 | 25.7 | 0.00 | 0.00 | 0.00 | 30 | 1006.9 |
| 20260901201505 | 15 | 273 | 8.0 | 35.4 | 0.00 | 0.00 | 0.00 | 31 | 1006.7 |
| 20260901200005 | 15 | 277 | 4.8 | 32.2 | 0.00 | 0.00 | 0.00 | 31 | 1006.6 |
| 20260901194505 | 16 | 232 | 11.3 | 29.0 | 0.00 | 0.00 | 0.00 | 30 | 1006.6 |
| 20260901193059 | 15 | 30 | 8.0 | 27.4 | 0.00 | 0.00 | 0.00 | 31 | 1006.7 |
| 20260901191606 | 15 | 241 | 11.3 | 24.1 | 0.00 | 0.00 | 0.00 | 31 | 1006.6 |
| 20260901190112 | 15 | 248 | 9.7 | 25.7 | 0.00 | 0.00 | 0.00 | 31 | 1006.9 |
| 20260901184559 | 15 | 259 | 4.8 | 22.5 | 0.00 | 0.00 | 0.00 | 32 | 1006.7 |
| 20260901183053 | 14 | 269 | 9.7 | 29.0 | 0.00 | 0.00 | 0.00 | 32 | 1006.5 |
| 20260901181554 | 13 | 269 | 19.3 | 43.5 | 0.00 | 0.00 | 0.00 | 33 | 1006.8 |
| 20260901180050 | 13 | 241 | 11.3 | 29.0 | 0.00 | 0.00 | 0.00 | 35 | 1006.8 |
| 20260901174601 | 13 | 46 | 4.8 | 32.2 | 0.00 | 0.00 | 0.00 | 38 | 1006.6 |
| 20260901173049 | 12 | 275 | 16.1 | 30.6 | 0.00 | 0.00 | 0.00 | 37 | 1006.5 |
| 20260901171548 | 13 | 280 | 11.3 | 30.6 | 0.00 | 0.00 | 0.00 | 37 | 1006.3 |
| 20260901170044 | 12 | 304 | 11.3 | 29.0 | 0.00 | 0.00 | 0.00 | 39 | 1005.8 |
| 20260901164546 | 12 | 226 | 11.3 | 30.6 | 0.00 | 0.00 | 0.00 | 41 | 1005.8 |
| 20260901163042 | 11 | 269 | 6.4 | 29.0 | 0.00 | 0.00 | 0.00 | 42 | 1005.7 |
| 20260901161542 | 11 | 296 | 11.3 | 25.7 | 0.00 | 0.00 | 0.00 | 42 | 1005.7 |
| 20260901160040 | 12 | 232 | 1.6 | 11.3 | 0.00 | 0.00 | 0.00 | 41 | 1005.7 |
| 20260901154536 | 11 | 260 | 8.0 | 22.5 | 0.00 | 0.00 | 0.00 | 46 | 1005.4 |
| 20260901153038 | 10 | 268 | 8.0 | 22.5 | 0.00 | 0.00 | 0.00 | 48 | 1005.1 |
| 20260901151534 | 10 | 286 | 8.0 | 25.7 | 0.00 | 0.00 | 0.00 | 54 | 1005.0 |
| 20260901150034 | 9 | 261 | 8.0 | 40.2 | 0.00 | 0.00 | 0.00 | 59 | 1004.8 |
| 20260901144531 | 8 | 275 | 8.0 | 33.8 | 0.00 | 0.00 | 0.00 | 62 | 1004.6 |
| 20260901143037 | 8 | 305 | 4.8 | 25.7 | 0.00 | 0.00 | 0.00 | 63 | 1004.5 |
| 20260901141530 | 8 | 283 | 9.7 | 33.8 | 0.00 | 0.00 | 0.00 | 64 | 1004.3 |
| 20260901140030 | 8 | 288 | 4.8 | 25.7 | 0.00 | 0.00 | 0.00 | 63 | 1003.9 |
| 20260901134524 | -17 | 0.0 | 0.0 | 0.00 | 0.00 | 0.00 | 1003.7 | ||
| 20260901133031 | -17 | 0.0 | 0.0 | 0.00 | 0.00 | 0.00 | 1003.6 | ||
| 20260901131517 | -17 | 0.0 | 0.0 | 0.00 | 0.00 | 0.00 | 1003.9 | ||
| 20260901130013 | -17 | 0.0 | 0.0 | 0.00 | 0.00 | 0.00 | 1004.0 | ||
| 20260901124509 | -17 | 0.0 | 0.0 | 0.00 | 0.00 | 0.00 | 1004.3 |